sat.trackr.live / text

‹ back to catalog

STARLINK-31509

NORAD 59533 · 2024-073Y

PAYLOAD ACTIVE UNKNOWN

§ Identity

Operator
Country
US
Launch date
2024-04-17
Launch site
AFETR
Launch vehicle
Mass (kg)
RCS (m²)

Purposes: comms

External: N2YO · Heavens-Above · Gunter

§ Orbital elements

Epoch: 2026-05-25T00:17:09.092256Z

Period
94.27 min
Inclination
43.0059°
Eccentricity
0.0001888
Mean motion
15.27572463 rev/d
Perigee alt
481.8 km
Apogee alt
484.4 km
Semi-major
6,861.2 km
B*
2.9653e-5
RAAN
247.3861°
Arg perigee
270.5512°
Mean anomaly
89.5124°
Rev number
11,784

§ Raw data

STARLINK-315091 59533U 24073Y   26145.01191079  .00000553  00000+0  29653-4 0  99982 59533  43.0059 247.3861 0001888 270.5512  89.5124 15.27572463117848

JSON: /api/v1/satellites/59533 · /tle

For live sub-satellite position, see the globe view (requires WebGL).

§ Visibility from observer

Set your observer location to see the next 7 days of passes ≥ 10°. The values pass through the URL so the page stays shareable.

No JS? Fill the form by hand. The geolocation button needs JavaScript.